Location: Lake Arresoe
(56.0000°N, 12.5000°E)
Time: 22:20:27
(UTC+02:00)

Okean 3 - Pass Details

Date: 14 August 2020
Orbit: 576 x 601 km, 82.5° (Epoch: 01 October)

Event Time Altitude Azimuth Distance (km) Brightness Sun altitude
Rises 23:51:58 0° 340° (NNW) 2,858 8.7 -17.9°
Reaches altitude 10° 23:54:26 10° 328° (NNW) 1,953 7.3 -18.0°
Maximum altitude 23:58:02 26° 272° (W) 1,191 5.2 -18.2°
Enters shadow 00:00:38 15° 224° (SW) 1,630 5.5 -18.3°
